Location: LDNL
(36.4545°S, 141.6685°E)
Time: 15:34:44
(UTC+10:00)

Courier 1B - Pass Details

Date: 17 August 2022
Orbit: 962 x 1209 km, 28.3° (Epoch: 25 September)

Event Time Altitude Azimuth Distance (km) Brightness Sun altitude
Rises 20:02:24 0° 325° (NW) 3,762 11.0 -24.9°
Reaches altitude 10° 20:05:49 10° 341° (NNW) 2,858 10.1 -25.6°
Enters shadow 20:10:03 20° 19° (NNE) 2,266 9.2 -26.4°
